Weather History for KMCW - April, 2013

Change the Weather History Date:

Tuesday, April 23, 2013

  Actual Average Record
Temperature  
Mean Temperature 34 °F 50 °F  
Max Temperature 41 °F 62 °F 90 °F (1924)
Min Temperature 27 °F 38 °F 22 °F (1967)
Degree Days  
Heating Degree Days 31 15  
Month to date heating degree days 619 460  
Since 1 July heating degree days 7417 7305  
Cooling Degree Days 0 0  
Month to date cooling degree days 0 0  
Year to date cooling degree days 0 0  
Moisture  
Dew Point 26 °F    
Average Humidity 69    
Maximum Humidity 85    
Minimum Humidity 52    
Precipitation  
Precipitation T in 0.14 in 2.06 in (1968)
Month to date precipitation 7.23 2.78  
Year to date precipitation 12.28 6.83  
Snow  
Snow 0.00 in 0.10 in 1.00 in (1988)
Month to date snowfall 0.7 2.5  
Since 1 July snowfall 46.5 41.0  
Snow Depth 0.00 in    
Sea Level Pressure  
Sea Level Pressure 30.12 in    
Wind  
Wind Speed 18 mph (NNW)    
Max Wind Speed 28 mph    
Max Gust Speed 33 mph    
Visibility 10 miles    
Events      
T = Trace of Precipitation, MM = Missing Value Source: NWS Daily Summary

Daily Weather History Graph

Daily Weather History Graph

Search for Another Location

Airport or City:

Trip Planner

Search our weather history database for the weather conditions in past years. The results will help you decide how hot, cold, wet, or windy it might be!

Date:

Astronomy

Apr. 23, 2013 Rise Set
Actual Time 6:18 AM CDT 8:05 PM CDT
Civil Twilight 5:47 AM CDT 8:36 PM CDT
Nautical Twilight 5:10 AM CDT 9:13 PM CDT
Astronomical Twilight 4:31 AM CDT 9:53 PM CDT
Moon 5:58 PM CDT (4/23) 4:50 AM CDT (4/23)
Length of Visible Light 14h 48m
Length of Day
13h 47m
Waxing Gibbous, 94% of the Moon is Illuminated
Apr 23
Waxing Gibbous
Apr 25
Full
May 2
Last Quarter
May 9
New
May 17
First Quarter

Hourly Weather History & Observations

Time (CDT) Temp. Windchill Dew Point Humidity Pressure Visibility Wind Dir Wind Speed Gust Speed Precip Events Conditions
12:00 AM 33.8 °F 21.9 °F 30.2 °F 87% 30.07 in 10.0 mi NNW 21.9 mph - N/A   Overcast
12:53 AM 33.1 °F 20.9 °F 28.9 °F 85% 30.09 in 10.0 mi NNW 21.9 mph 27.6 mph N/A   Overcast
1:53 AM 32.0 °F 19.8 °F 28.9 °F 88% 30.10 in 10.0 mi NNW 20.7 mph - 0.00 in   Overcast
2:53 AM 32.0 °F 18.4 °F 28.0 °F 85% 30.11 in 10.0 mi NNW 26.5 mph 29.9 mph N/A   Overcast
3:53 AM 32.0 °F 18.9 °F 28.0 °F 85% 30.09 in 10.0 mi North 24.2 mph 29.9 mph N/A   Overcast
4:53 AM 32.0 °F 18.6 °F 27.0 °F 82% 30.15 in 10.0 mi NNW 25.3 mph 29.9 mph N/A   Overcast
5:53 AM 30.9 °F 17.8 °F 26.1 °F 82% 30.13 in 10.0 mi NNW 23.0 mph 31.1 mph N/A   Overcast
6:53 AM 30.0 °F 17.5 °F 26.1 °F 85% 30.15 in 10.0 mi NNW 19.6 mph - N/A   Overcast
7:53 AM 28.9 °F 15.8 °F 25.0 °F 85% 30.13 in 10.0 mi NNW 20.7 mph 27.6 mph N/A   Overcast
8:53 AM 28.9 °F 16.5 °F 25.0 °F 85% 30.15 in 10.0 mi NNW 18.4 mph 26.5 mph N/A   Overcast
9:53 AM 30.0 °F 18.3 °F 25.0 °F 82% 30.17 in 10.0 mi NNW 17.3 mph - N/A   Overcast
10:53 AM 33.1 °F 21.5 °F 26.1 °F 75% 30.14 in 10.0 mi North 19.6 mph - N/A   Mostly Cloudy
11:53 AM 36.0 °F 25.3 °F 28.0 °F 73% 30.15 in 10.0 mi NNW 19.6 mph 24.2 mph N/A   Scattered Clouds
12:33 PM 37.4 °F 28.5 °F 28.4 °F 70% 30.11 in 10.0 mi NNW 15.0 mph - N/A   Mostly Cloudy
12:53 PM 37.0 °F 27.0 °F 27.0 °F 67% 30.14 in 10.0 mi NNW 18.4 mph - N/A   Scattered Clouds
1:53 PM 39.2 °F 29.3 °F 26.6 °F 61% 30.10 in 10.0 mi NNW 20.7 mph 25.3 mph N/A   Scattered Clouds
2:53 PM 39.9 °F 30.8 °F 25.0 °F 55% 30.12 in 10.0 mi NNW 18.4 mph 25.3 mph N/A   Partly Cloudy
3:53 PM 39.9 °F 30.2 °F 24.1 °F 53% 30.12 in 10.0 mi NNW 20.7 mph 26.5 mph N/A   Partly Cloudy
4:53 PM 39.0 °F 29.9 °F 24.1 °F 55% 30.11 in 10.0 mi NNW 17.3 mph - N/A   Scattered Clouds
5:53 PM 37.0 °F 27.0 °F 21.9 °F 54% 30.11 in 10.0 mi NNW 18.4 mph - N/A   Scattered Clouds
6:53 PM 37.0 °F 27.4 °F 21.9 °F 54% 30.11 in 10.0 mi North 17.3 mph - N/A   Scattered Clouds
7:53 PM 35.1 °F 25.2 °F 21.9 °F 59% 30.12 in 10.0 mi NW 16.1 mph - N/A   Mostly Cloudy
8:53 PM 32.0 °F 23.6 °F 23.0 °F 69% 30.13 in 10.0 mi NW 10.4 mph - N/A   Partly Cloudy
9:53 PM 30.9 °F 22.2 °F 23.0 °F 72% 30.14 in 10.0 mi NW 10.4 mph - N/A   Clear
10:53 PM 30.0 °F 20.0 °F 24.1 °F 79% 30.13 in 10.0 mi WNW 12.7 mph - N/A   Clear
11:53 PM 28.9 °F 19.2 °F 24.1 °F 82% 30.12 in 10.0 mi NW 11.5 mph - N/A   Clear